World > North America > United States > Alaska > King Cove  

King Cove, AK Hourly Weather Forecast

Feedback E-mail the Weather

Quick Clicks

Weather World

24 Hour Forecast

Current Conditions - Overcast. Temperature is 41°F5°C, dew point 39°F4°C, humidity 93%. Wind direction is WNW at 8 mph13 km/h with visibility of 10 mi16 km. Barometric pressure is 29.67 in1004 mb.
Tonight - Rain and snow showers. Snow accumulation up to 3 inches. Lows in the upper 20s to upper 30s. Variable wind 10 mph... Full Forecast
Friday - Rain and snow showers likely in the morning, then a chance of rain and snow showers in the afternoon. Little or no snow accumulati.. Full Forecast

King Cove Hourly Weather

24 Hour Weather Scroll
Thu, Apr 18
7:00 pm
Thu, Apr 18
8:00 pm
Thu, Apr 18
9:00 pm
Thu, Apr 18
10:00 pm
Thu, Apr 18
11:00 pm
Fri, Apr 19
Midnight
Fri, Apr 19
1:00 am
Fri, Apr 19
2:00 am
Fri, Apr 19
3:00 am
Fri, Apr 19
4:00 am
Fri, Apr 19
5:00 am
Fri, Apr 19
6:00 am
Fri, Apr 19
7:00 am
Fri, Apr 19
8:00 am
Fri, Apr 19
9:00 am
Fri, Apr 19
10:00 am
Fri, Apr 19
11:00 am
Fri, Apr 19
Noon
Fri, Apr 19
1:00 pm
Fri, Apr 19
2:00 pm
Fri, Apr 19
3:00 pm
Fri, Apr 19
4:00 pm
Fri, Apr 19
5:00 pm
Fri, Apr 19
6:00 pm
Light RainLight Sleet ShowersLight Sleet ShowersLight Sleet ShowersFogFogFogFogMistLight Snow ShowersMistMistMistMistMistOvercast Overcast Patchy Rain NearbyPatchy Rain NearbyLight SnowLight SnowLight Snow ShowersLight Snow ShowersPatchy Rain Nearby
Light Rain Light Sleet Showers Light Sleet Showers Light Sleet Showers Fog Fog Fog Fog Mist Light Snow Showers Mist Mist Mist Mist Mist Overcast Overcast Patchy Rain Nearby Patchy Rain Nearby Light Snow Light Snow Light Snow Showers Light Snow Showers Patchy Rain Nearby
39°F4°C 36°F2°C 35°F2°C 34°F1°C 34°F1°C 34°F1°C 34°F1°C 34°F1°C 34°F1°C 33°F1°C 33°F0°C 33°F0°C 33°F0°C 33°F1°C 34°F1°C 34°F1°C 35°F2°C 36°F2°C 36°F2°C 37°F3°C 38°F3°C 38°F3°C 38°F4°C 39°F4°C
36°F
2°C
36°F
2°C
35°F
1°C
34°F
1°C
34°F
1°C
34°F
1°C
33°F
1°C
33°F
1°C
33°F
0°C
32°F
-0°C
32°F
-0°C
32°F
-0°C
31°F
-0°C
32°F
-0°C
32°F
0°C
32°F
0°C
32°F
0°C
33°F
0°C
33°F
0°C
32°F
0°C
32°F
0°C
31°F
-0°C
31°F
-0°C
31°F
-1°C
29.65 in
1004 mb
29.68 in
1005 mb
29.68 in
1005 mb
29.68 in
1005 mb
29.68 in
1005 mb
29.71 in
1006 mb
29.71 in
1006 mb
29.71 in
1006 mb
29.71 in
1006 mb
29.71 in
1006 mb
29.74 in
1007 mb
29.74 in
1007 mb
29.74 in
1007 mb
29.77 in
1008 mb
29.77 in
1008 mb
29.77 in
1008 mb
29.77 in
1008 mb
29.77 in
1008 mb
29.77 in
1008 mb
29.77 in
1008 mb
29.77 in
1008 mb
29.77 in
1008 mb
29.77 in
1008 mb
29.74 in
1007 mb
87%97%98%99%99%99%98%97%95%93%96%96%94%94%94%93%90%88%86%83%79%76%75%73%
WNNNWNNNNWWSWSSWSSWSWWSWWSWWNNWNNWNNNNENNNNWNWNWNW
11 mph
17 km/h
6 mph
9 km/h
6 mph
10 km/h
7 mph
11 km/h
5 mph
8 km/h
2 mph
4 km/h
2 mph
3 km/h
4 mph
7 km/h
6 mph
9 km/h
6 mph
9 km/h
5 mph
8 km/h
3 mph
5 km/h
1 mph
2 km/h
2 mph
4 km/h
4 mph
6 km/h
4 mph
7 km/h
5 mph
8 km/h
6 mph
10 km/h
7 mph
11 km/h
6 mph
10 km/h
6 mph
9 km/h
6 mph
9 km/h
6 mph
9 km/h
5 mph
8 km/h
100%100%100%100%100%0%0%0%0%0%0%0%0%0%0%0%0%82%77%73%77%100%88%67%
5 mi
8 km
6 mi
10 km
6 mi
10 km
6 mi
10 km
0 mi
0 km
0 mi
0 km
0 mi
0 km
0 mi
0 km
1 mi
2 km
6 mi
10 km
1 mi
2 km
1 mi
2 km
1 mi
2 km
1 mi
2 km
1 mi
2 km
6 mi
10 km
6 mi
10 km
6 mi
10 km
6 mi
10 km
6 mi
10 km
6 mi
10 km
6 mi
10 km
6 mi
10 km
6 mi
10 km

Day/Time
Weather
Condition
Temperature
Dew Point
Pressure
Humidity
Wind Direction
Wind Speed
Prob Precip %
Visibility
POP = Probability of Precipitation. ** Indicates missing data/values from PAVC model statistics.

Trending Headlines

Trending Entertainment Headlines

King Cove Radar Loop

Use the map search tool if you want to place a location marker on the radar map...

48 Hour API Forecast

Prob Precip % = Probability of Precipitation.

King Cove 36 Hour Forecast

POP = Probability of Precipitation. ** Indicates missing data/values from model statistics.

E-mail the King Cove Weather Forecast

Voice your opinion or tell us about page issues...

King Cove AK Weather - 11:19 pm

What are people saying?

Contact Us